Lapse_Rate
4.8 4.6 4.4 5.0 6.5 6.6 6.4 6.5 6.6 6.5 6.5 6.3 5.7 6.5 6.5 6.6 6.4 6.5 4.0 4.6 4.7 4.8 5.3 5.5 5.8 6.0 6.0 6.1 6.0 6.1 6.0 6.1 5.9 5.9 5.9 6.3 6.1 6.1 5.8 5.8 5.9 6.1 6.1 6.3 6.5 6.7 6.6 6.3 6.3
3.6 4.8 4.5 4.8 6.5 6.5 6.5 6.5 6.5 6.5 6.8 6.1 6.9 7.0 6.6 6.5 5.9 4.1 4.9 4.7 4.8 4.9 5.1 5.8 5.8 6.0 6.0 5.9 5.9 6.0 6.2 6.0 6.0 6.0 6.0 6.1 6.1 6.3 6.2 6.2 5.9 6.3 6.3 6.1 6.4 6.4 6.5 6.3 6.0
4.1 5.8 5.1 6.5 6.5 6.5 6.5 6.5 6.5 6.5 6.7 6.8 6.5 6.9 6.9 6.3 5.5 4.5 4.7 4.6 4.5 4.5 5.1 6.0 5.6 5.9 6.0 6.0 6.0 5.9 6.0 6.0 6.4 6.0 6.0 6.2 6.1 6.2 6.1 6.1 5.8 6.0 6.0 6.2 6.2 6.2 6.1 6.1 6.1
5.1 4.6 4.7 6.5 6.5 6.5 6.5 6.5 6.5 6.4 6.4 6.6 6.6 6.5 6.8 6.8 6.4 5.0 4.8 4.6 3.7 4.0 5.3 6.3 6.0 6.1 6.2 6.1 6.1 6.0 5.8 5.9 6.0 6.0 6.0 6.0 6.1 6.1 6.1 6.1 5.8 5.7 6.1 6.1 6.1 6.2 6.4 6.3 6.3
4.3 5.0 6.5 6.5 6.5 6.4 6.5 6.5 6.2 6.6 6.5 6.3 6.4 6.5 6.3 5.3 5.0 4.9 4.9 4.8 3.8 4.1 5.3 6.3 6.1 6.1 6.2 6.1 6.3 6.2 6.1 5.9 5.9 6.3 6.2 6.0 6.2 6.2 6.3 6.3 6.1 5.9 6.0 6.0 5.8 5.9 6.2 6.1 6.4
4.8 5.0 6.5 6.5 6.5 6.5 6.5 6.6 6.8 6.6 6.8 6.7 6.7 6.4 6.3 6.2 5.1 5.1 5.5 4.8 4.9 4.2 5.1 6.5 6.3 6.4 6.4 6.4 6.2 6.3 6.1 5.9 5.7 5.8 5.8 6.3 6.6 6.5 6.4 6.3 6.3 5.7 5.9 5.8 5.8 5.9 6.0 6.4 6.3
6.1 6.5 6.5 6.5 6.5 6.5 6.5 6.6 6.5 6.5 6.5 6.5 6.9 6.5 6.3 5.9 5.2 5.5 5.2 5.3 5.4 4.9 4.6 5.2 6.1 6.6 6.5 6.5 6.5 6.4 6.3 5.9 5.8 5.8 6.0 6.4 6.6 6.4 6.2 6.1 5.6 5.6 6.1 6.4 6.1 5.8 6.0 6.5 6.3
4.7 6.3 6.5 6.5 6.5 6.5 6.5 6.7 6.9 6.6 6.6 6.8 6.0 6.4 6.2 5.5 5.4 5.4 5.6 5.0 4.6 4.3 4.4 4.0 4.6 5.0 4.9 5.4 6.0 6.5 6.1 6.2 6.3 6.6 6.7 6.6 6.7 6.8 5.8 5.4 5.6 5.9 6.2 6.4 6.1 5.8 5.8 5.9 6.1
5.8 6.5 6.5 6.5 6.5 6.5 6.3 6.5 7.0 6.7 6.9 6.6 6.3 5.2 4.3 4.9 5.1 5.0 5.6 5.6 5.1 4.7 3.9 3.8 3.9 3.8 4.5 4.9 6.3 6.6 6.8 6.7 6.5 6.2 6.3 6.3 5.6 5.8 5.8 5.1 5.8 6.1 6.0 6.1 6.2 6.0 6.0 6.2 6.2
6.1 6.5 6.5 6.5 6.4 6.5 6.4 6.4 6.3 6.5 6.5 6.3 4.8 4.8 4.9 5.2 4.5 4.2 5.9 6.0 5.8 5.0 4.1 3.5 3.5 3.7 4.3 4.4 4.7 4.7 5.1 4.9 4.9 4.6 4.9 4.7 4.1 4.6 4.9 5.0 6.1 6.2 6.0 6.0 5.9 5.8 5.9 5.6 5.0
6.4 6.6 6.5 6.4 6.1 6.6 6.5 6.5 6.8 6.1 6.5 6.1 5.3 4.5 5.0 4.7 4.6 4.8 5.6 6.6 6.1 5.7 4.7 3.7 3.5 3.5 3.7 3.2 4.0 4.0 3.7 3.9 3.7 3.7 3.8 3.5 3.7 3.7 3.7 3.9 4.0 4.0 4.5 4.3 4.3 4.1 3.9 4.0 4.3
6.5 6.2 6.4 6.6 6.1 6.4 6.4 6.6 6.2 6.2 5.7 4.5 3.4 3.6 4.6 4.2 3.9 4.5 6.0 6.5 6.0 5.4 5.2 4.4 3.7 3.4 3.7 3.8 3.7 3.8 3.7 3.7 3.0 3.8 3.9 3.6 3.7 3.7 3.3 3.5 3.9 3.8 3.9 3.4 3.4 3.2 3.6 3.6 4.1
6.5 6.5 6.1 6.5 6.3 6.4 6.7 6.3 6.3 6.0 4.5 3.9 4.2 5.0 4.5 4.2 4.1 4.2 4.9 5.9 5.8 5.6 5.7 4.7 4.0 3.6 3.6 4.0 3.7 3.7 3.9 3.7 3.9 3.9 4.1 4.2 3.6 3.0 3.0 3.1 3.4 3.5 3.5 3.1 2.9 2.9 2.9 3.1 3.7
6.4 6.1 6.4 6.7 6.1 6.6 6.6 6.5 6.3 5.9 4.4 4.3 4.2 4.4 4.4 4.2 3.7 3.3 3.8 4.5 5.5 5.5 5.0 4.5 4.7 4.0 4.0 3.6 3.7 3.7 4.5 4.4 4.0 4.0 4.0 4.2 3.7 3.0 2.8 3.1 3.1 3.4 3.1 3.1 2.8 2.6 2.9 3.3 3.7
6.2 6.5 6.5 6.3 6.6 6.5 5.9 6.5 6.4 6.0 5.2 4.8 5.2 5.1 4.9 4.5 4.2 2.9 2.7 3.5 4.3 5.2 5.3 4.9 4.9 3.9 4.0 4.0 3.7 4.0 4.1 3.6 3.7 3.7 3.7 4.2 3.9 3.9 3.2 2.9 3.0 2.9 3.3 3.8 4.0 4.0 3.8 4.1 4.3
6.4 6.5 6.5 6.5 6.4 6.2 6.1 6.5 6.5 5.5 6.4 6.0 5.1 5.6 5.4 4.5 4.0 3.4 3.5 2.8 3.6 4.3 4.8 5.3 6.0 4.7 4.3 3.9 3.9 3.6 3.7 3.6 4.0 3.6 3.8 4.7 4.5 4.5 3.6 3.0 2.9 3.4 3.8 3.6 3.6 3.7 3.6 4.0 4.3
6.5 6.6 6.5 6.5 6.5 6.5 6.5 6.5 6.5 5.6 4.8 5.6 5.9 6.3 5.1 4.3 4.0 3.7 4.0 3.3 2.6 3.7 4.0 3.9 5.0 4.1 4.4 3.8 4.0 3.8 3.6 3.8 4.0 4.0 3.9 4.3 4.5 4.4 3.6 3.0 2.9 3.2 3.2 3.5 3.4 3.8 3.6 3.5 4.4
6.6 6.4 6.5 6.5 6.5 6.5 6.5 6.5 6.5 5.6 5.5 5.8 5.5 5.5 5.3 4.5 3.8 3.9 4.1 3.9 3.3 2.6 3.4 3.6 4.1 3.6 4.0 3.7 3.7 3.1 3.0 3.3 4.0 4.0 4.0 4.2 4.2 4.0 3.2 3.0 2.9 2.9 3.1 2.9 3.3 3.4 3.8 3.8 4.0
6.4 6.5 6.5 6.4 6.4 6.4 6.5 6.4 6.4 6.1 5.8 5.9 4.9 5.2 4.3 3.7 4.3 4.0 4.4 4.1 3.7 2.9 2.5 2.9 3.4 3.5 4.0 3.8 3.6 3.5 3.8 3.5 3.7 4.0 4.3 4.4 4.6 3.9 3.3 2.7 2.7 2.5 2.7 2.9 3.4 3.5 3.6 3.4 3.7
6.5 6.5 6.5 6.5 6.5 6.5 6.5 6.5 6.5 6.4 6.2 6.0 5.7 6.5 5.0 4.8 4.0 4.2 4.2 4.0 3.5 2.8 2.6 1.8 2.6 2.7 2.9 2.8 2.5 2.8 2.9 3.3 3.5 4.1 4.5 4.5 4.3 3.9 3.2 2.7 1.8 1.9 2.3 2.9 3.6 3.9 3.7 3.3 3.8
6.5 6.5 6.5 6.5 6.4 6.4 6.5 6.5 6.5 6.4 6.0 6.2 6.1 7.0 6.0 3.3 3.3 3.9 4.2 3.7 3.7 3.0 2.7 2.0 2.3 2.1 2.2 2.3 2.3 2.4 3.3 3.3 3.4 3.9 3.5 3.7 3.9 4.0 3.6 3.0 2.4 2.3 2.7 3.2 3.3 3.3 3.2 3.0 3.4
6.5 6.4 6.5 6.5 6.5 6.5 6.5 6.4 6.6 6.5 6.4 6.4 5.4 6.2 6.2 3.6 4.2 3.7 4.0 3.5 3.7 3.3 3.4 2.3 2.5 2.3 2.3 2.3 2.5 3.8 3.5 3.1 3.7 3.3 3.3 2.4 3.4 3.5 3.5 3.2 2.9 2.7 2.7 2.8 2.8 4.1 4.0 3.3 4.1
6.5 6.6 6.5 6.5 6.5 6.4 6.5 6.4 6.5 6.5 6.5 6.4 6.1 6.2 6.3 6.0 4.5 3.2 3.5 3.8 3.8 3.8 3.0 2.9 2.4 2.5 2.7 2.3 2.5 2.0 2.9 4.1 3.0 3.1 3.0 2.3 2.4 3.4 3.2 2.9 2.7 2.2 2.7 2.9 3.2 3.4 3.7 3.7 3.7
6.6 6.5 6.6 6.5 6.5 6.5 6.4 6.5 6.5 6.5 6.5 6.5 6.1 6.6 6.3 5.8 4.6 3.6 3.4 3.7 3.4 3.6 3.0 2.6 2.3 2.5 2.5 2.5 2.0 2.2 2.7 2.7 2.6 2.8 2.7 2.8 3.3 3.4 2.3 2.4 2.2 2.6 2.7 2.7 1.9 2.3 3.0 3.4 3.4
6.5 6.5 6.5 6.5 6.5 6.5 6.5 6.5 6.5 6.4 6.5 6.6 6.3 5.7 5.6 6.3 5.1 3.3 2.8 2.3 2.2 2.7 2.6 2.5 2.7 2.3 2.2 2.0 1.8 2.0 2.3 2.8 3.7 3.5 2.7 3.2 2.8 2.4 2.2 2.0 2.7 2.2 2.0 2.0 2.1 2.4 2.9 3.4 3.2
6.6 6.5 6.5 6.5 6.5 6.5 6.6 6.5 6.6 6.5 5.5 4.8 4.8 5.2 5.5 5.1 3.5 3.2 2.9 1.7 2.2 2.3 2.9 2.9 2.0 2.5 2.5 1.5 2.2 1.9 2.4 2.9 3.0 2.0 1.8 2.1 2.1 2.5 2.1 2.8 2.3 1.9 2.2 2.5 2.6 3.0 3.5 3.3 3.2
6.5 6.4 6.5 6.5 6.5 6.5 6.5 6.5 6.5 6.6 6.5 6.0 5.2 4.9 4.5 4.2 3.1 2.6 2.3 2.0 1.6 2.2 2.4 2.6 2.3 2.4 3.2 2.8 3.3 2.2 3.0 2.9 2.8 3.1 2.6 2.4 2.7 3.1 3.0 2.6 2.4 2.3 3.0 3.0 3.3 3.2 2.5 2.1 2.0
6.5 6.5 6.5 6.5 6.5 6.5 6.5 6.5 6.4 6.5 6.5 6.5 6.3 5.0 4.1 3.6 2.8 2.5 2.0 2.3 2.4 2.7 2.9 2.7 2.3 2.7 3.1 3.7 3.8 3.5 3.9 3.4 3.0 3.2 2.9 2.6 2.0 2.4 2.3 2.2 2.2 2.4 2.8 3.2 3.5 2.5 1.9 2.0 1.8
6.5 6.5 6.5 6.5 6.5 6.5 6.5 6.5 6.5 6.5 6.5 6.6 6.1 4.3 3.5 3.1 2.7 2.2 2.0 1.9 2.5 2.3 2.5 2.3 1.8 2.1 2.5 3.1 2.6 3.4 3.3 3.5 2.2 2.0 1.6 1.7 1.4 1.5 1.8 1.8 2.0 2.3 2.0 2.5 2.3 2.3 2.2 2.1 2.2
6.4 6.5 6.5 6.5 6.5 6.5 6.5 6.5 6.5 6.5 6.4 5.5 5.0 3.3 2.8 1.7 1.7 1.8 1.5 1.4 1.6 1.7 1.6 2.0 1.5 1.9 2.3 2.5 2.8 3.1 2.7 1.8 1.7 1.1 1.0 0.8 0.6 1.0 1.5 1.3 1.3 1.3 1.3 1.3 2.1 2.3 2.5 2.6 2.6
Wind_Speed
11 7 3 1 3 4 2 3 1 4 3 1 3 6 7 3 2 2 2 4 7 5 9 13 17 19 21 22 23 23 23 23 24 23 23 22 21 20 19 18 16 14 14 12 11 9 8 6 5
8 3 1 0 5 4 3 3 3 6 10 8 10 8 6 4 3 5 3 6 6 6 8 15 16 18 20 21 24 24 24 23 23 22 21 20 19 17 16 15 14 12 11 10 10 8 7 6 5
5 1 1 3 3 3 3 3 6 9 8 3 4 4 3 3 3 5 6 8 8 5 9 16 18 19 20 21 22 23 23 22 21 21 20 19 17 15 14 12 12 10 9 9 7 6 7 6 5
2 1 2 4 2 2 4 6 4 5 5 6 6 5 4 5 4 6 10 8 8 6 8 16 18 20 20 21 21 21 21 21 19 18 19 17 15 14 13 11 11 10 8 7 6 7 6 6 5
1 2 2 3 3 3 8 6 6 2 4 5 3 3 3 4 11 11 9 8 8 5 8 14 18 20 19 20 20 20 20 20 18 17 16 15 14 13 13 12 10 9 7 8 7 6 5 4 3
2 1 5 3 4 5 5 5 7 10 12 10 7 4 3 2 7 6 7 5 6 7 6 13 16 19 19 19 19 18 18 18 17 16 14 11 12 12 11 10 9 8 7 6 6 4 2 2 1
4 3 2 4 6 3 3 4 5 5 7 4 5 4 1 4 6 6 6 6 6 8 8 8 11 17 17 18 17 16 16 15 15 16 14 14 11 11 10 9 9 8 6 4 3 2 3 3 3
3 3 3 3 7 4 6 3 5 2 4 6 7 5 3 3 8 8 8 8 8 6 6 7 9 11 11 14 14 11 13 14 13 12 12 12 10 11 9 9 7 6 4 1 0 2 2 4 6
3 3 1 5 7 5 8 5 3 4 7 3 3 4 9 11 10 8 8 8 7 6 5 7 8 11 13 11 12 11 10 10 11 11 11 11 10 9 8 6 4 2 1 3 5 6 7 7 8
2 3 1 4 6 9 9 11 7 5 3 5 9 10 12 10 9 9 10 8 8 10 6 5 6 8 9 9 10 4 10 7 9 8 11 11 9 7 7 3 1 3 4 7 9 11 12 12 10
2 3 3 3 4 12 12 6 4 10 1 4 11 13 12 11 7 9 10 9 7 8 6 5 5 7 9 7 11 9 9 10 12 9 10 11 8 8 6 5 6 7 7 7 11 12 12 12 11
4 6 4 4 8 8 11 7 5 4 4 10 15 16 12 12 10 9 10 9 9 10 8 6 5 5 7 7 8 9 7 11 8 8 9 10 7 6 4 2 3 5 7 8 9 10 13 14 13
3 2 8 10 8 7 8 5 5 5 10 15 13 13 11 8 7 6 9 7 6 8 7 8 5 4 5 5 7 8 8 7 6 6 7 8 6 4 4 3 3 6 9 9 8 9 9 10 11
2 5 12 11 8 10 9 3 2 4 14 14 15 14 9 9 10 7 8 8 7 6 7 7 7 5 7 4 5 6 10 7 6 4 7 8 6 4 5 4 5 5 9 6 7 7 6 6 7
3 7 8 9 6 3 8 1 2 8 13 14 12 9 8 7 9 9 8 9 8 5 8 8 7 6 5 5 6 6 6 8 6 5 3 5 5 4 5 4 4 7 7 6 6 7 6 4 5
5 6 4 5 3 2 5 6 3 8 12 10 12 10 8 8 9 6 6 6 8 7 8 8 8 7 5 5 6 7 7 6 8 7 5 2 2 2 4 4 4 9 9 6 4 3 4 4 4
8 3 3 3 6 5 2 3 3 3 8 7 6 11 9 7 6 6 7 6 8 9 7 6 5 7 5 4 5 5 6 4 5 6 5 3 3 3 3 3 5 7 6 3 2 2 2 3 5
5 4 2 3 1 4 2 5 5 8 10 8 9 8 8 11 11 8 8 7 7 6 7 5 4 7 6 4 4 3 3 2 3 5 5 4 6 6 5 5 5 6 3 2 1 2 2 3 5
7 6 6 3 4 1 2 4 7 9 8 13 11 10 8 8 6 8 9 8 7 7 7 7 6 6 6 2 2 2 2 1 1 4 5 7 12 10 7 6 6 5 3 3 3 2 3 2 2
5 6 2 2 2 3 6 7 8 12 12 12 8 10 8 5 6 8 10 9 9 8 7 7 7 7 5 3 2 3 3 2 2 3 7 11 13 10 7 6 5 6 3 4 3 3 2 2 1
3 5 5 2 4 3 1 7 6 7 9 12 6 10 9 10 11 10 12 12 10 10 10 9 8 8 5 4 3 2 2 2 2 3 4 10 10 11 10 9 8 5 2 4 5 3 4 2 1
4 7 7 3 1 3 2 5 4 6 13 15 9 16 15 15 8 9 11 12 13 10 9 8 8 8 6 6 4 2 3 3 5 3 2 5 10 11 12 9 7 6 4 5 3 2 2 2 2
2 8 6 7 2 2 2 2 6 4 6 13 15 16 17 17 15 13 12 12 11 11 11 9 8 8 7 6 6 5 3 3 1 2 5 5 6 10 11 9 10 5 3 2 0 3 2 1 2
12 6 7 5 3 2 5 5 5 6 12 6 11 13 16 16 15 11 7 8 10 9 9 10 10 7 7 7 5 6 6 5 4 4 4 4 3 3 8 11 4 3 1 1 0 2 2 3 2
4 5 3 4 3 5 5 1 10 4 6 9 16 13 15 18 16 13 12 10 10 11 11 9 10 9 9 8 8 7 7 6 5 5 3 3 4 4 4 3 3 1 2 1 0 2 3 2 1
4 6 5 4 2 4 2 6 6 6 8 7 11 8 9 14 13 15 15 12 11 12 11 10 12 9 10 10 10 8 5 2 3 3 4 6 5 5 4 3 3 2 2 1 2 3 4 5 5
5 3 5 6 2 2 4 6 9 9 6 4 8 11 12 12 12 13 12 12 11 11 13 13 13 12 12 12 9 8 8 6 8 10 7 6 4 1 2 2 3 2 3 6 6 5 6 6 5
3 9 3 3 2 5 5 5 7 4 8 4 9 9 9 9 9 8 10 11 11 11 10 10 10 12 11 11 9 8 7 8 8 5 2 2 3 4 4 6 7 6 7 8 7 6 5 7 5
2 1 5 5 4 4 2 6 7 9 7 11 9 11 13 13 12 10 8 9 10 9 10 10 9 10 8 9 8 7 5 5 4 4 4 5 5 5 5 5 7 8 8 7 9 7 6 10 9
1 6 6 5 5 2 2 6 4 7 9 10 9 10 10 12 13 11 10 10 10 10 9 10 9 8 7 7 6 6 5 5 4 5 5 5 7 6 6 7 9 8 8 8 8 9 9 10 10
Wind_Direction
156 129 117 113 61 71 46 66 140 110 112 299 95 101 97 19 49 178 358 124 123 130 141 134 127 123 122 124 125 126 128 130 129 129 125 129 128 127 127 123 122 121 117 114 111 107 108 109 103
121 108 38 344 72 55 355 34 51 67 123 123 83 93 60 48 73 111 93 128 120 133 134 133 127 125 124 126 127 128 126 126 126 127 129 132 132 130 126 126 124 122 122 120 115 114 111 107 105
144 253 52 68 93 125 126 72 120 143 160 76 99 61 83 94 95 140 127 129 115 108 134 140 135 129 127 127 126 123 123 123 126 130 134 135 135 133 130 129 128 131 126 120 115 110 108 106 108
148 34 50 71 135 85 105 133 134 108 80 81 110 59 63 347 133 123 123 120 110 115 139 149 142 133 131 128 128 128 127 127 130 133 135 138 140 137 138 140 136 134 124 121 117 107 108 104 101
98 72 51 61 42 84 113 131 142 85 104 39 31 85 52 39 91 109 118 124 126 115 150 152 147 137 135 132 129 128 131 132 134 136 139 142 145 150 150 149 141 134 136 126 116 109 104 101 99
61 121 55 14 68 71 99 125 102 88 102 91 64 65 50 57 79 94 107 109 133 116 118 154 151 141 140 135 133 133 134 138 140 141 143 143 143 139 135 136 138 130 132 126 117 108 81 17 340
106 69 140 100 109 84 113 122 107 131 107 76 123 84 68 62 82 85 82 88 97 98 110 111 148 148 138 135 137 137 140 145 150 149 152 150 146 143 149 139 137 137 134 123 107 83 27 339 342
110 98 146 126 151 147 149 106 123 165 77 115 133 141 170 147 113 96 84 81 94 88 92 99 111 116 132 129 133 140 149 151 154 148 149 144 153 137 136 144 146 133 132 123 317 329 340 321 321
132 51 62 148 151 157 150 130 170 77 126 50 42 100 127 127 113 97 105 108 106 97 92 111 107 111 119 130 148 167 159 151 148 147 151 132 120 127 121 121 141 128 48 316 310 307 302 306 303
144 92 294 181 158 150 146 151 138 116 122 41 79 99 120 127 127 132 150 151 146 153 123 104 106 115 123 133 126 68 107 79 85 92 110 107 104 106 104 73 31 2 330 327 321 321 320 324 322
181 141 4 119 119 130 145 137 113 133 211 192 155 151 149 142 150 157 164 167 162 157 148 133 119 120 121 117 125 113 88 91 86 83 103 102 87 68 52 30 2 351 339 327 321 323 316 314 310
156 234 166 144 129 125 147 136 118 168 218 137 164 159 156 160 169 171 172 175 164 169 153 128 124 121 113 126 117 111 98 80 77 91 103 101 77 61 53 9 317 295 290 292 290 295 296 293 295
168 201 119 123 110 113 125 148 152 202 130 135 148 161 166 163 158 154 173 176 178 165 153 156 140 127 128 111 106 101 88 96 112 103 98 99 96 77 43 1 318 300 298 280 281 280 287 294 297
354 79 113 126 138 153 140 196 163 189 139 146 162 175 173 168 163 139 165 180 178 158 155 158 152 132 127 109 110 101 113 154 127 124 96 98 99 86 57 12 12 354 343 316 308 290 291 288 298
356 103 133 135 143 109 101 329 223 146 153 158 179 181 175 164 156 175 160 177 181 169 163 166 148 129 129 125 129 132 128 136 167 145 123 106 84 68 51 15 358 356 355 357 332 324 315 296 320
52 57 91 136 140 198 93 255 206 157 160 173 185 186 180 170 172 160 145 152 176 172 163 165 167 146 131 141 141 138 149 161 176 156 190 146 54 18 26 1 344 341 343 338 337 329 313 306 304
44 52 61 113 11 174 137 224 236 136 116 120 167 180 174 163 169 157 160 156 165 181 171 162 143 135 138 138 135 139 151 163 192 182 193 216 282 332 324 297 303 337 335 347 345 292 269 307 309
159 219 233 179 319 356 0 208 109 134 148 155 165 165 184 186 190 156 161 156 151 157 167 153 147 142 149 133 124 100 101 127 193 228 233 267 268 270 279 293 302 328 299 322 297 280 296 255 283
144 181 186 157 120 39 212 215 148 159 171 203 166 170 178 195 162 153 160 158 148 155 157 166 162 163 158 148 142 133 165 178 164 248 267 251 261 257 272 291 301 299 293 294 313 297 307 297 315
120 146 208 311 105 136 223 239 162 175 206 205 174 166 193 152 159 163 161 168 172 172 175 167 177 165 178 155 141 148 159 197 182 197 248 245 246 254 272 275 284 281 305 306 297 263 293 277 308
192 196 204 76 137 188 284 272 192 210 187 211 184 173 168 193 186 173 172 175 174 177 184 179 178 170 165 147 121 99 93 58 349 260 237 243 247 256 267 268 269 282 263 283 272 265 242 290 292
208 195 122 125 121 213 270 268 293 206 194 197 179 183 180 186 193 182 177 178 183 184 181 174 166 156 153 154 170 175 188 148 225 207 243 259 254 264 267 279 274 276 275 260 289 290 248 213 269
112 86 110 101 100 336 326 60 266 141 205 210 198 188 185 185 188 185 192 182 187 172 176 175 163 142 148 161 177 190 200 215 289 225 250 272 282 277 282 282 283 263 249 254 79 328 318 265 246
129 83 49 60 85 323 218 149 268 192 211 197 214 195 181 177 184 184 191 160 165 166 169 172 162 145 175 178 191 200 208 219 223 242 266 284 316 297 278 256 240 247 117 104 323 36 294 276 233
81 82 9 1 0 230 326 210 246 251 238 199 196 204 179 178 179 170 171 181 161 174 176 167 150 167 168 167 208 217 222 220 220 247 264 293 284 262 274 236 207 197 230 196 152 5 329 348 44
154 144 148 206 224 277 3 240 247 236 241 215 203 192 156 167 170 176 178 181 170 175 182 167 164 175 170 189 205 212 233 237 262 243 241 247 245 259 210 227 181 220 294 298 80 64 63 63 68
182 151 165 106 40 359 233 283 292 243 267 180 148 154 164 164 174 172 169 175 169 174 184 180 168 179 185 193 201 206 215 209 220 245 241 252 222 251 28 73 114 124 93 90 86 72 70 61 48
156 149 95 17 206 270 276 273 246 280 211 190 156 164 159 158 158 168 172 171 175 182 180 178 176 186 186 195 190 200 184 204 210 218 209 77 90 82 85 83 85 90 86 88 86 76 61 73 52
136 172 63 117 141 203 285 268 214 230 191 179 187 167 163 165 166 174 176 170 166 154 170 178 170 171 176 173 183 195 180 205 169 123 97 100 86 88 88 90 86 80 79 77 85 78 74 77 66
197 164 154 135 196 211 146 277 288 224 191 175 177 175 167 164 168 172 167 158 152 158 159 174 167 173 171 165 163 175 135 139 118 106 114 100 93 80 85 82 84 88 83 75 82 85 76 77 70